Time,TemperatureF,DewpointF,PressureIn,WindDirection,WindDirectionDegrees,WindSpeedMPH,WindSpeedGustMPH,Humidity,HourlyPrecipIn,Conditions,Clouds,dailyrainin,SoftwareType,DateUTC
2013-07-14 18:27:00,93.4,68.0,30.17,West,269,0.0,2.0,43,0.00,,,0.00,weatherlink.com 1.10,2013-07-14 22:27:00,
2013-07-14 18:38:00,92.9,67.0,30.17,SSE,156,0.0,2.0,43,0.00,,,0.00,weatherlink.com 1.10,2013-07-14 22:38:00,
2013-07-14 19:00:00,90.1,67.0,30.17,SSE,155,1.0,2.0,47,0.00,,,0.00,weatherlink.com 1.10,2013-07-14 23:00:00,
2013-07-14 19:19:00,88.2,67.0,30.17,South,170,0.0,1.0,49,0.00,,,0.00,weatherlink.com 1.10,2013-07-14 23:19:00,
2013-07-14 19:35:00,87.6,67.0,30.17,SE,138,0.0,1.0,50,0.00,,,0.00,weatherlink.com 1.10,2013-07-14 23:35:00,
2013-07-14 19:50:00,87.1,67.0,30.17,SE,141,1.0,1.0,51,0.00,,,0.00,weatherlink.com 1.10,2013-07-14 23:50:00,
2013-07-14 20:05:00,86.8,67.0,30.17,SSE,153,0.0,1.0,51,0.00,,,0.00,weatherlink.com 1.10,2013-07-15 00:05:00,
2013-07-14 20:20:00,86.3,67.0,30.18,SSE,156,0.0,1.0,53,0.00,,,0.00,weatherlink.com 1.10,2013-07-15 00:20:00,
2013-07-14 20:35:00,86.3,67.0,30.18,SSE,148,0.0,1.0,53,0.00,,,0.00,weatherlink.com 1.10,2013-07-15 00:35:00,
2013-07-14 20:50:00,85.2,67.0,30.18,SE,146,0.0,1.0,55,0.00,,,0.00,weatherlink.com 1.10,2013-07-15 00:50:00,
2013-07-14 21:05:00,84.2,67.0,30.18,SSE,162,1.0,1.0,56,0.00,,,0.00,weatherlink.com 1.10,2013-07-15 01:05:00,
2013-07-14 21:20:00,83.5,67.0,30.18,SE,146,0.0,1.0,58,0.00,,,0.00,weatherlink.com 1.10,2013-07-15 01:20:00,
2013-07-14 21:35:00,82.9,68.0,30.18,SSE,147,0.0,0.0,60,0.00,,,0.00,weatherlink.com 1.10,2013-07-15 01:35:00,
2013-07-14 21:50:00,82.3,68.0,30.19,SSE,153,0.0,0.0,62,0.00,,,0.00,weatherlink.com 1.10,2013-07-15 01:50:00,
2013-07-14 22:05:00,82.4,68.0,30.20,SSE,156,0.0,1.0,62,0.00,,,0.00,weatherlink.com 1.10,2013-07-15 02:05:00,
2013-07-14 22:20:00,81.8,69.0,30.20,SSE,160,0.0,0.0,65,0.00,,,0.00,weatherlink.com 1.10,2013-07-15 02:20:00,
2013-07-14 22:35:00,81.2,70.0,30.20,SSE,159,0.0,0.0,68,0.00,,,0.00,weatherlink.com 1.10,2013-07-15 02:35:00,
2013-07-14 22:50:00,82.1,69.0,30.20,SE,129,0.0,2.0,65,0.00,,,0.00,weatherlink.com 1.10,2013-07-15 02:50:00,
2013-07-14 23:05:00,80.4,69.0,30.20,South,174,0.0,1.0,68,0.00,,,0.00,weatherlink.com 1.10,2013-07-15 03:05:00,
2013-07-14 23:20:00,79.3,69.0,30.20,South,179,0.0,0.0,71,0.00,,,0.00,weatherlink.com 1.10,2013-07-15 03:20:00,
2013-07-14 23:35:00,79.4,69.0,30.20,South,179,0.0,0.0,71,0.00,,,0.00,weatherlink.com 1.10,2013-07-15 03:35:00,
2013-07-14 23:50:00,79.6,69.0,30.20,SE,142,0.0,0.0,71,0.00,,,0.00,weatherlink.com 1.10,2013-07-15 03:50:00,